DW0805 Ramloese DK current weather conditions

sailwx.info

Wind from 357 at 6 knots gusting 8

Air temperature 23.9° C
Dewpoint 13.1° C

Last reported at 2018-Jul-19 12:55 UTC.
Time now 2018-Jul-19 13:23 UTC

Location: N 56°01' E 012°05'.
View on Google Maps.

See reports from other nearby stations

  
Tides and Currents Weather Stations Pressure Air Temp Water Temp Dewpoint Dewpoint Depression Visibility Wind Speed Wind Dir Waves Ship Positions
date/time (UTC)wind fromknots sea level pressurealtimeterstation pressurevisibilityair tempwater tempwave heightnotes
2018-Jul-19 12:55 357 6 gusting 8 23.9
2018-Jul-19 12:45 334 5 gusting 10 23.9
2018-Jul-19 12:35 356 5 gusting 11 23.3
2018-Jul-19 12:25 354 5 gusting 13 23.3
2018-Jul-19 12:15 327 5 gusting 11 23.3
2018-Jul-19 11:45 354 6 gusting 11 22.8
2018-Jul-19 11:35 339 6 gusting 10 22.8
2018-Jul-19 11:25 303 6 gusting 11 22.2
2018-Jul-19 11:15 355 6 gusting 10 23.3
2018-Jul-19 11:05 292 4 gusting 13 22.8
2018-Jul-19 10:55 006 6 gusting 10 22.8
2018-Jul-19 10:45 283 8 gusting 13 22.2
2018-Jul-19 10:35 309 5 gusting 13 22.8
2018-Jul-19 10:25 338 4 gusting 10 22.2
2018-Jul-19 10:05 002 4 gusting 13 22.2
2018-Jul-19 09:55 300 6 gusting 13 21.7
2018-Jul-19 09:15 331 5 gusting 11 21.7
2018-Jul-19 08:55 337 6 gusting 12 21.1
2018-Jul-19 08:45 333 5 gusting 12 21.1
2018-Jul-19 08:35 311 4 gusting 13 21.1
2018-Jul-19 08:26 327 7 gusting 13 21.1
2018-Jul-19 08:05 022 5 gusting 13 20.6
2018-Jul-19 07:55 316 6 gusting 12 21.1
2018-Jul-19 07:25 347 6 gusting 12 21.1
2018-Jul-19 07:15 352 5 gusting 12 20.6
2018-Jul-19 07:05 344 6 gusting 11 20.6
2018-Jul-19 06:55 320 6 gusting 11 20.6
2018-Jul-19 06:45 332 6 gusting 12 20.6
2018-Jul-19 06:35 346 6 gusting 10 20.0
2018-Jul-19 06:25 332 6 gusting 11 19.4
2018-Jul-19 06:05 348 4 gusting 13 19.4
2018-Jul-19 05:45 357 6 gusting 12 18.9
2018-Jul-19 05:35 346 4 gusting 12 18.9
2018-Jul-19 05:25 342 4 gusting 12 18.3
2018-Jul-19 05:15 314 4 gusting 8 18.3
2018-Jul-19 05:05 331 5 gusting 7 18.3
2018-Jul-19 04:55 348 2 gusting 8 18.3
2018-Jul-19 04:25 345 6 gusting 11 17.8
2018-Jul-19 04:15 330 3 gusting 11 17.8
2018-Jul-19 03:55 336 4 gusting 8 17.8
2018-Jul-19 03:25 359 4 gusting 8 17.2
2018-Jul-19 03:15 347 4 gusting 7 17.2
2018-Jul-19 03:05 349 3 gusting 8 17.2
2018-Jul-19 02:55 344 2 gusting 8 17.2
2018-Jul-19 02:45 322 6 gusting 11 17.2
2018-Jul-19 02:35 339 6 gusting 12 17.2
2018-Jul-19 02:15 355 4 gusting 8 17.2
2018-Jul-19 02:05 344 2 gusting 8 17.8
2018-Jul-19 01:55 335 2 gusting 8 17.8
2018-Jul-19 01:45 346 4 gusting 7 17.8
2018-Jul-19 01:25 352 5 gusting 8 17.8
2018-Jul-19 01:15 358 2 gusting 8 17.8
2018-Jul-19 01:05 001 4 gusting 11 17.8
2018-Jul-19 00:55 18.3
2018-Jul-19 00:45 357 4 gusting 8 18.3
2018-Jul-19 00:35 003 2 gusting 10 18.3
2018-Jul-19 00:25 347 5 gusting 10 18.9
2018-Jul-19 00:15 348 5 gusting 12 18.9
2018-Jul-19 00:05 004 5 gusting 12 18.9
2018-Jul-18 23:55 337 4 gusting 10 18.9
2018-Jul-18 23:45 338 5 gusting 12 18.9
2018-Jul-18 23:35 352 7 gusting 13 18.9
2018-Jul-18 23:25 344 7 gusting 11 19.4
2018-Jul-18 23:15 346 5 gusting 12 19.4
2018-Jul-18 23:05 340 4 gusting 13 19.4
2018-Jul-18 22:55 347 5 gusting 11 19.4
2018-Jul-18 22:45 350 9 gusting 12 19.4
2018-Jul-18 22:35 347 5 gusting 13 19.4
2018-Jul-18 22:25 352 4 gusting 13 19.4
2018-Jul-18 22:15 348 6 gusting 11 19.4
2018-Jul-18 21:55 340 5 gusting 13 20.0
2018-Jul-18 21:35 331 8 gusting 15 20.0
2018-Jul-18 21:15 339 6 gusting 13 20.0
2018-Jul-18 21:05 351 6 gusting 13 20.6
2018-Jul-18 20:55 001 5 gusting 11 20.6
2018-Jul-18 20:45 008 6 gusting 10 20.6
2018-Jul-18 20:35 351 3 gusting 13 20.6
2018-Jul-18 20:25 354 6 gusting 13 20.6
2018-Jul-18 20:15 355 7 gusting 13 20.6
2018-Jul-18 20:05 340 5 gusting 13 20.6
2018-Jul-18 19:55 358 6 gusting 11 20.6
2018-Jul-18 19:35 349 7 gusting 13 21.1
2018-Jul-18 19:25 002 5 gusting 17 21.1
2018-Jul-18 19:15 351 6 gusting 14 21.7
2018-Jul-18 19:05 352 5 gusting 11 21.7
2018-Jul-18 18:55 343 6 gusting 12 22.2
2018-Jul-18 18:35 002 2 gusting 7 22.8
2018-Jul-18 18:25 001 2 gusting 8 23.3
2018-Jul-18 18:15 354 3 gusting 8 23.9
2018-Jul-18 17:45 001 2 gusting 11 24.4
2018-Jul-18 17:35 357 3 gusting 8 24.4
2018-Jul-18 17:15 009 5 gusting 10 25.0
2018-Jul-18 17:05 005 3 gusting 13 25.0
2018-Jul-18 16:55 354 6 gusting 13 25.0
2018-Jul-18 16:25 353 6 gusting 10 25.6
2018-Jul-18 16:15 010 5 gusting 11 25.6
2018-Jul-18 16:05 006 4 gusting 8 25.0
2018-Jul-18 15:55 018 5 gusting 12 25.0
2018-Jul-18 15:35 336 4 gusting 13 25.0
2018-Jul-18 15:25 25.6
2018-Jul-18 15:15 006 3 gusting 10 25.6
2018-Jul-18 15:05 336 3 gusting 11 25.0
2018-Jul-18 14:55 358 6 gusting 12 25.0
2018-Jul-18 14:35 351 4 gusting 12 25.6
2018-Jul-18 14:25 346 8 gusting 13 25.6
2018-Jul-18 13:55 347 4 gusting 11 25.0
2018-Jul-18 13:35 356 4 gusting 11 24.4
2018-Jul-18 13:15 354 6 gusting 12 24.4
2018-Jul-18 13:05 357 1 gusting 10 25.0
2018-Jul-18 12:55 342 6 gusting 11 24.4
2018-Jul-18 12:45 342 6 gusting 10 23.9
2018-Jul-18 12:35 306 6 gusting 13 23.9
2018-Jul-18 12:25 326 5 gusting 8 24.4
2018-Jul-18 12:15 335 4 gusting 8 25.0
2018-Jul-18 12:05 331 4 gusting 10 25.6
2018-Jul-18 11:55 056 5 gusting 12 26.7
2018-Jul-18 11:35 340 2 gusting 12 25.6
2018-Jul-18 11:25 024 2 gusting 11 26.1
2018-Jul-18 11:15 356 6 gusting 13 24.4
2018-Jul-18 11:05 345 4 gusting 12 23.9
2018-Jul-18 10:45 342 2 gusting 8 23.9
2018-Jul-18 10:25 355 2 gusting 13 23.3
2018-Jul-18 10:05 010 6 gusting 11 23.9
2018-Jul-18 09:55 344 4 gusting 10 23.9
2018-Jul-18 09:35 330 4 gusting 8 23.3
2018-Jul-18 09:05 328 4 gusting 8 22.8
2018-Jul-18 08:55 315 3 gusting 8 22.2
2018-Jul-18 08:25 328 4 gusting 10 21.7
2018-Jul-18 08:05 329 2 gusting 7 21.1
2018-Jul-18 07:55 323 2 gusting 7 21.1
2018-Jul-18 07:45 328 2 gusting 7 21.1
2018-Jul-18 07:25 346 4 gusting 6 21.1
2018-Jul-18 06:55 344 0 gusting 6 21.1
2018-Jul-18 06:45 346 1 gusting 5 21.1
2018-Jul-18 06:35 341 1 gusting 4 21.1
2018-Jul-18 06:25 340 20.6
2018-Jul-18 06:15 333 20.6
2018-Jul-18 05:55 330 20.0
2018-Jul-18 05:45 322 20.0
2018-Jul-18 05:35 319 19.4
2018-Jul-18 05:25 327 19.4
2018-Jul-18 05:15 319 19.4
2018-Jul-18 05:05 321 19.4
2018-Jul-18 04:55 330 19.4
2018-Jul-18 04:15 322 18.9
2018-Jul-18 04:05 335 18.9
2018-Jul-18 03:45 320 18.9
2018-Jul-18 03:35 331 19.4
2018-Jul-18 03:05 329 18.9
2018-Jul-18 02:55 320 18.9
2018-Jul-18 02:45 319 18.9
2018-Jul-18 02:25 319 18.9
2018-Jul-18 02:15 321 18.9
2018-Jul-18 02:05 319 18.9
2018-Jul-18 01:55 319 18.9
2018-Jul-18 01:45 320 18.9
2018-Jul-18 01:35 335 18.9
2018-Jul-18 01:25 319 18.3
2018-Jul-18 01:05 327 18.9
2018-Jul-18 00:45 320 18.9
2018-Jul-18 00:35 319 18.9
2018-Jul-18 00:25 319 18.9
2018-Jul-18 00:15 320 18.9
2018-Jul-18 00:05 319 18.9
2018-Jul-17 23:55 319 18.9
2018-Jul-17 23:45 329 18.9
2018-Jul-17 23:25 320 18.3
2018-Jul-17 23:05 319 18.3
2018-Jul-17 22:55 320 18.3
2018-Jul-17 22:45 319 18.3
2018-Jul-17 22:25 319 18.3
2018-Jul-17 22:05 320 18.3
2018-Jul-17 21:35 321 18.3
2018-Jul-17 21:15 319 18.9
2018-Jul-17 21:05 319 18.9
2018-Jul-17 20:55 320 19.4
2018-Jul-17 20:45 321 19.4
2018-Jul-17 20:25 319 19.4
2018-Jul-17 20:15 319 19.4
2018-Jul-17 19:55 319 20.6
2018-Jul-17 19:45 321 21.1
2018-Jul-17 19:35 321 21.1
2018-Jul-17 19:25 320 21.7
2018-Jul-17 19:15 320 21.7
2018-Jul-17 19:05 321 21.7
2018-Jul-17 18:55 324 22.2
2018-Jul-17 18:45 319 22.8
2018-Jul-17 18:35 321 0 gusting 1 22.8
2018-Jul-17 18:15 316 23.3
2018-Jul-17 18:05 316 23.3
2018-Jul-17 17:55 314 23.3
2018-Jul-17 17:45 315 23.3
2018-Jul-17 17:35 315 23.9
2018-Jul-17 17:25 313 23.9
2018-Jul-17 17:15 313 23.9
2018-Jul-17 17:05 314 23.9
2018-Jul-17 16:45 314 0 gusting 4 23.9
2018-Jul-17 16:25 314 3 gusting 7 23.9
2018-Jul-17 16:15 313 3 gusting 7 23.9
2018-Jul-17 16:05 312 2 gusting 5 23.9
2018-Jul-17 15:55 314 1 gusting 5 23.9
2018-Jul-17 15:45 322 1 gusting 6 24.4
2018-Jul-17 15:35 322 3 gusting 6 24.4
2018-Jul-17 15:25 308 1 gusting 6 24.4
2018-Jul-17 15:15 324 1 gusting 4 23.3
2018-Jul-17 14:35 313 1 gusting 5 22.8
2018-Jul-17 14:05 330 22.8
2018-Jul-17 13:55 322 22.8
2018-Jul-17 13:45 335 22.8
2018-Jul-17 13:35 329 0 gusting 2 22.8
2018-Jul-17 13:25 321 1 gusting 4 22.8
2018-Jul-17 13:15 324 22.8
2018-Jul-17 13:05 321 1 gusting 2 22.8